597  
AXUS43 KGID 232002  
MISGRI  
 
GID CWA HOURLY WEATHER ROUNDUP  
NATIONAL WEATHER SERVICE HASTINGS NE  
300 PM CDT SUN JUL 23 2017  
 
NOTE: "FAIR" INDICATES FEW OR NO CLOUDS BELOW 12,000 FEET WITH NO  
SIGNIFICANT WEATHER AND/OR OBSTRUCTIONS TO VISIBILITY.  
   
..SOUTH CENTRAL NEBRASKA
 
 
 
CITY SKY/WX TMP DP RH WIND PRES REMARKS  
GRAND ISLAND SUNNY 89 62 40 NE13 30.01F  
HASTINGS SUNNY 87 68 52 N9 30.02F HX 90  
KEARNEY SUNNY 88 65 46 N9 30.03F HX 90  
ORD SUNNY 89 52 28 NE5 30.02F  
YORK SUNNY 84 68 58 N8 30.00R  
AURORA SUNNY 84 67 55 N10 30.00F  
LEXINGTON SUNNY 88 63 42 SE6 30.04S  
HOLDREGE SUNNY 87 62 43 N3 30.03F  
HEBRON SUNNY 92 66 41 N9 29.96F HX 95  
   
..NEBRASKA PANHANDLE
 
 
 
CITY SKY/WX TMP DP RH WIND PRES REMARKS  
CHADRON SUNNY 93 52 24 S9 30.03F HX 90  
ALLIANCE SUNNY 94 48 20 VRB6 30.08F HX 90  
SCOTTSBLUFF SUNNY 93 55 27 E10 30.07F HX 91  
SIDNEY SUNNY 95 43 16 S12 30.13F HX 91  
   
..WESTERN AND NORTH CENTRAL NEBRASKA
 
 
 
CITY SKY/WX TMP DP RH WIND PRES REMARKS  
VALENTINE SUNNY 93 42 17 VRB3 30.05F  
AINSWORTH SUNNY 87 53 31 E3 30.07S  
ONEILL SUNNY 83 60 46 N6 30.05S  
BROKEN BOW SUNNY 90 57 32 NE8 30.05S  
IMPERIAL SUNNY 95 43 16 VRB6 30.06F HX 91  
NORTH PLATTE SUNNY 93 45 19 N3 30.04F  
MCCOOK SUNNY 94 53 25 VRB3 30.03F HX 91  
   
..EASTERN NEBRASKA
 
 
 
CITY SKY/WX TMP DP RH WIND PRES REMARKS  
NORFOLK SUNNY 87 53 31 N7G21 30.00F  
SO SIOUX CITY SUNNY 86 61 42 NW13 29.96F  
TEKAMAH SUNNY 87 61 41 N9G17 29.96F  
ALBION SUNNY 87 60 40 N9 30.02S  
OMAHA EPPLEY MOSUNNY 90 61 37 N16 29.95R HX 90  
OFFUTT AFB SUNNY 90 64 42 N13 29.94S HX 91  
MILLARD SUNNY 90 62 39 N7 29.95F HX 90  
LINCOLN SUNNY 90 67 46 N9G20 29.96S HX 93  
NEBRASKA CITY SUNNY 87 74 66 N5 29.95S HX 94  
BEATRICE SUNNY 92 70 47 N9 29.95S HX 97  
FALLS CITY MOSUNNY 90 77 65 VRB7 29.92S HX 103  
   
..NORTHERN KANSAS
 
 
 
CITY SKY/WX TMP DP RH WIND PRES REMARKS  
GOODLAND SUNNY 90 54 29 E13G23 30.10F  
HILL CITY SUNNY 95 59 30 E10 30.02F HX 94  
NORTON CLEAR 93 48 21 NE8 30.02F HX 90  
PHILLIPSBURG SUNNY 95 61 31 NE7 30.00S HX 95  
SMITH CENTER SUNNY 91 61 35 N6 29.99F HX 91  
HAYS N/A 94 60 32 E10 29.99F HX 94  
RUSSELL MOSUNNY 95 61 32 NE13G20 29.97F HX 95  
CONCORDIA SUNNY 94 64 37 NE7 29.96F HX 95  
SALINA MOSUNNY 96 68 39 N12 29.95F HX 101  
TOPEKA SUNNY 92 72 51 CALM 29.92F HX 99  
 
CLICK HERE TO GO TO PREVIOUS BULLETINS.

The Nexlab NE Page
The Nexlab KS Page Main Text Page